Flag for Canada Weather past 2 weeks in Coral Harbour, Nunavut Territory, Canada

Now
54 °F

Passing clouds.


Feels Like: 54 °F
Forecast: 50 / 68 °F
Wind: No wind

Location: Coral Harbour

Current Time: Jul 31, 2014 at 1:14:36 AM

Latest Report: Jul 31, 2014 at 12:00 AM


Visibility: 15 mi

Pressure: 30.10 "Hg

Humidity: 88%

Dew point: 50 °F

Location of Coral HarbourLocation

Historic Weather in Coral Harbour — Graph

°F

Coral Harbour temperature yesterday

Maximum temperature yesterday: 72 °F (at 2:00 PM)
Minimum temperature yesterday: 50 °F (at 1:00 AM)
Average temperature yesterday: 60 °F

Past Weeks' High & Low Weather Summary

 TemperatureHumidityPressure
High72 °F (Jul 25, 3:00 PM)100% (Jul 16, 3:00 AM)30.12 "Hg (Jul 16, 3:00 AM)
Low41 °F (Jul 19, 4:00 AM)38% (Jul 25, 2:00 PM)29.36 "Hg (Jul 17, 6:00 PM)
Average53 °F78%29.79 "Hg
* Reported Jul 15 11:00 PM — Jul 30 11:00 PM, Coral Harbour, Weather by CustomWeather, © 2014

Note: Actual official high and low records may vary slightly from our data, if they occured in-between our weather recording intervals... More about our weather records

Advertising

Coral Harbour weather history for previous 24 hours

 ConditionsComfort  
Time TempWeatherWind HumidityBarometerVisibility
11:00 PM
Jul 30
55 °FPassing clouds.7 mph88%30.09 "Hg15 mi
10:00 PM57 °FOvercast.5 mph88%30.10 "Hg15 mi
9:00 PM61 °FOvercast.2 mph77%30.09 "Hg15 mi
8:00 PM63 °FOvercast.3 mph73%30.08 "Hg15 mi
7:00 PM64 °FOvercast.7 mph68%30.08 "Hg15 mi
6:00 PM68 °FOvercast.7 mph56%30.07 "Hg15 mi
5:00 PM68 °FOvercast.7 mph60%30.06 "Hg15 mi
4:00 PM70 °FOvercast.8 mph60%30.05 "Hg15 mi
3:00 PM72 °FOvercast.8 mph57%30.05 "Hg15 mi
2:00 PM72 °FOvercast.6 mph57%30.05 "Hg15 mi
1:00 PM68 °FOvercast.6 mph60%30.06 "Hg15 mi
12:00 PM68 °FOvercast.5 mph64%30.06 "Hg15 mi
11:00 AM66 °FOvercast.5 mph68%30.06 "Hg15 mi
10:00 AM64 °FOvercast.5 mph68%30.07 "Hg15 mi
9:00 AM61 °FMostly cloudy.6 mph72%30.07 "Hg15 mi
8:00 AM57 °FOvercast.3 mph82%30.08 "Hg15 mi
7:00 AM54 °FOvercast.3 mph88%30.08 "Hg15 mi
6:00 AM54 °FMore clouds than sun.7 mph88%30.08 "Hg15 mi
5:00 AM52 °FMostly cloudy.7 mph94%30.08 "Hg15 mi
4:00 AM50 °FLow clouds.6 mph94%30.08 "Hg15 mi
3:51 AMN/ALow clouds.5 mphN/AN/A15 mi
3:00 AM50 °FOvercast.No wind100%30.07 "Hg15 mi
2:00 AM52 °FOvercast.3 mph94%30.08 "Hg15 mi
1:00 AM50 °FOvercast.5 mph94%30.08 "Hg15 mi
Weather by CustomWeather, © 2014

See weather overviewHow to use our weather pages